(°C)
15°
16°
17°
18°
18°
19°
19°
(°C)
14°
15°
17°
17°
18°
18°
18°
ENE
NE
ENE
ENE
ENE
NE
NNE
(km/h)
5-7
5-7
5-7
7-8
7-10
6-10
6-11
(mm)
0
0
0
0
0
0
0
(%)
53
37
32
26
42
42
44

Elevația soarelui

/ 42.6°
sun-icon
UV 2
05:54
20:46
Al doilea pătrar (313°)
01:41
18:10

METAR pentru Innsbruck (LOWI)

Ora Condiții Temperatură/
Punctul de rouă
Vânt Vizibilitate Vremea Nori Presiune Schimbă Brut
VFR 14°C / 12°C 100º variable 060º to 140º 4kt >10km - Scattered Clouds 1000ft 1017 No Significant change LOWI 040750Z 10004KT 060V140 9999 SCT010 BKN045 14/12 Q1017 NOSIG
VFR 14°C / 12°C variable 2kt >10km Light Rain 1.00mm precipitation Vertical Visibility of 0ft. 1017 No Significant change LOWI 040720Z VRB02KT 9999 -RA SCT012 BKN045 14/12 Q1017 NOSIG
VFR 14°C / 12°C variable 1kt >10km Light Rain 1.00mm precipitation Vertical Visibility of 0ft. 1017 No Significant change LOWI 040650Z VRB01KT 9999 -RA SCT015 BKN045 14/12 Q1017 NOSIG
VFR 14°C / 12°C 170º 2kt >10km Light Rain 1.00mm precipitation Vertical Visibility of 0ft. 1017 No Significant change LOWI 040620Z 17002KT 9999 -RA SCT015 BKN045 14/12 Q1017 NOSIG
VFR 14°C / 12°C variable 1kt >10km Light Rain 1.00mm precipitation Vertical Visibility of 0ft. 1017 Temporary: Rain . LOWI 040550Z VRB01KT 9999 -RA SCT015 BKN045 14/12 Q1017 TEMPO RA
VFR 14°C / 12°C variable 2kt >10km - Scattered Clouds 1500ft 1017 No Significant change LOWI 040520Z VRB02KT 9999 SCT015 BKN050 14/12 Q1017 NOSIG
VFR 14°C / 12°C 110º 4kt >10km - Scattered Clouds 1500ft 1016 No Significant change LOWI 040450Z 11004KT 9999 SCT015 BKN050 14/12 Q1016 NOSIG
VFR 14°C / 13°C variable 1kt >10km - Few Clouds 1200ft 1016 No Significant change LOWI 040420Z VRB01KT 9999 FEW012 SCT025 BKN050 14/13 Q1016 NOSIG
VFR 14°C / 13°C 260º 2kt >10km - Few Clouds 1200ft 1016 No Significant change LOWI 040350Z 26002KT 9999 FEW012 BKN040 14/13 Q1016 NOSIG
MVFR 14°C / 13°C variable 1kt >10km - Few Clouds 1100ft 1016 - LOWI 040320Z AUTO VRB01KT 9999 FEW011 BKN015 14/13 Q1016
VFR 14°C / 13°C 300º 3kt >10km Light Rain 1.00mm precipitation Vertical Visibility of 0ft. 1016 - LOWI 040250Z AUTO 30003KT 9999 -RA FEW011 SCT014 BKN046 14/13 Q1016
VFR 14°C / 13°C variable 2kt >10km - Few Clouds 1200ft 1016 - LOWI 040220Z AUTO VRB02KT 9999 FEW012 BKN046 14/13 Q1016
VFR 14°C / 13°C 350º 2kt >10km - Few Clouds 1000ft 1016 - LOWI 040150Z AUTO 35002KT 9999 FEW010 SCT034 BKN046 14/13 Q1016
MVFR 14°C / 13°C variable 2kt >10km Light Rain 1.00mm precipitation Vertical Visibility of 0ft. 1016 - LOWI 040120Z AUTO VRB02KT 9999 -RA FEW011 BKN018 14/13 Q1016
MVFR 15°C / 12°C variable 2kt >10km - Few Clouds 1000ft 1016 - LOWI 040050Z AUTO VRB02KT 9999 FEW010 BKN014 15/12 Q1016
VFR 14°C / 12°C 50º variable 010º to 090º 5kt >10km - Few Clouds 1000ft 1016 - LOWI 040020Z AUTO 05005KT 010V090 9999 FEW010 SCT042 BKN050 14/12 Q1016
VFR 15°C / 12°C 70º variable 020º to 120º 7kt >10km - Few Clouds 1100ft 1016 - LOWI 032350Z AUTO 07007KT 020V120 9999 FEW011 SCT040 BKN050 15/12 Q1016
VFR 15°C / 13°C 100º variable 060º to 120º 5kt >10km - Few Clouds 1000ft 1017 - LOWI 032320Z AUTO 10005KT 060V120 9999 FEW010 SCT032 BKN060 15/13 Q1017
VFR 15°C / 13°C 90º variable 060º to 120º 4kt >10km - Few Clouds 800ft 1017 - LOWI 032250Z AUTO 09004KT 060V120 9999 FEW008 BKN060 15/13 Q1017
VFR 15°C / 13°C 100º variable 060º to 120º 4kt >10km - Few Clouds 900ft 1017 - LOWI 032220Z AUTO 10004KT 060V120 9999 FEW009 BKN060 15/13 Q1017
MVFR 15°C / 14°C 140º variable 110º to 190º 3kt >10km Light Rain 1.00mm precipitation Vertical Visibility of 0ft. 1017 - LOWI 032150Z AUTO 14003KT 110V190 9999 -RA FEW008 BKN012 15/14 Q1017
MVFR 15°C / 14°C variable 1kt >10km - Few Clouds 800ft 1017 - LOWI 032120Z AUTO VRB01KT 9999 FEW008 BKN010 15/14 Q1017
MVFR 15°C / 14°C variable 2kt >10km Light Rain 1.00mm precipitation Vertical Visibility of 0ft. 1017 - LOWI 032050Z AUTO VRB02KT 9999 -RA FEW008 SCT010 BKN026 15/14 Q1017
VFR 15°C / 14°C variable 1kt >10km Light Drizzle 0.20mm precipitation Vertical Visibility of 0ft. 1017 - LOWI 032020Z AUTO VRB01KT 9999 -DZ FEW008 SCT034 BKN046 15/14 Q1017

VFR

14°C / 12°C

[Mai mult]
Vânt 100º variable 060º to 140º 4kt
Vizibilitate >10km
Vremea -
Nori Scattered Clouds 1000ft
Presiune 1017
Schimbă No Significant change
Brut LOWI 040750Z 10004KT 060V140 9999 SCT010 BKN045 14/12 Q1017 NOSIG

VFR

14°C / 12°C

[Mai mult]
Vânt variable 2kt
Vizibilitate >10km
Vremea Light Rain 1.00mm precipitation
Nori Vertical Visibility of 0ft.
Presiune 1017
Schimbă No Significant change
Brut LOWI 040720Z VRB02KT 9999 -RA SCT012 BKN045 14/12 Q1017 NOSIG

VFR

14°C / 12°C

[Mai mult]
Vânt variable 1kt
Vizibilitate >10km
Vremea Light Rain 1.00mm precipitation
Nori Vertical Visibility of 0ft.
Presiune 1017
Schimbă No Significant change
Brut LOWI 040650Z VRB01KT 9999 -RA SCT015 BKN045 14/12 Q1017 NOSIG

VFR

14°C / 12°C

[Mai mult]
Vânt 170º 2kt
Vizibilitate >10km
Vremea Light Rain 1.00mm precipitation
Nori Vertical Visibility of 0ft.
Presiune 1017
Schimbă No Significant change
Brut LOWI 040620Z 17002KT 9999 -RA SCT015 BKN045 14/12 Q1017 NOSIG

VFR

14°C / 12°C

[Mai mult]
Vânt variable 1kt
Vizibilitate >10km
Vremea Light Rain 1.00mm precipitation
Nori Vertical Visibility of 0ft.
Presiune 1017
Schimbă Temporary: Rain .
Brut LOWI 040550Z VRB01KT 9999 -RA SCT015 BKN045 14/12 Q1017 TEMPO RA

VFR

14°C / 12°C

[Mai mult]
Vânt variable 2kt
Vizibilitate >10km
Vremea -
Nori Scattered Clouds 1500ft
Presiune 1017
Schimbă No Significant change
Brut LOWI 040520Z VRB02KT 9999 SCT015 BKN050 14/12 Q1017 NOSIG

VFR

14°C / 12°C

[Mai mult]
Vânt 110º 4kt
Vizibilitate >10km
Vremea -
Nori Scattered Clouds 1500ft
Presiune 1016
Schimbă No Significant change
Brut LOWI 040450Z 11004KT 9999 SCT015 BKN050 14/12 Q1016 NOSIG

VFR

14°C / 13°C

[Mai mult]
Vânt variable 1kt
Vizibilitate >10km
Vremea -
Nori Few Clouds 1200ft
Presiune 1016
Schimbă No Significant change
Brut LOWI 040420Z VRB01KT 9999 FEW012 SCT025 BKN050 14/13 Q1016 NOSIG

VFR

14°C / 13°C

[Mai mult]
Vânt 260º 2kt
Vizibilitate >10km
Vremea -
Nori Few Clouds 1200ft
Presiune 1016
Schimbă No Significant change
Brut LOWI 040350Z 26002KT 9999 FEW012 BKN040 14/13 Q1016 NOSIG

MVFR

14°C / 13°C

[Mai mult]
Vânt variable 1kt
Vizibilitate >10km
Vremea -
Nori Few Clouds 1100ft
Presiune 1016
Schimbă -
Brut LOWI 040320Z AUTO VRB01KT 9999 FEW011 BKN015 14/13 Q1016

VFR

14°C / 13°C

[Mai mult]
Vânt 300º 3kt
Vizibilitate >10km
Vremea Light Rain 1.00mm precipitation
Nori Vertical Visibility of 0ft.
Presiune 1016
Schimbă -
Brut LOWI 040250Z AUTO 30003KT 9999 -RA FEW011 SCT014 BKN046 14/13 Q1016

VFR

14°C / 13°C

[Mai mult]
Vânt variable 2kt
Vizibilitate >10km
Vremea -
Nori Few Clouds 1200ft
Presiune 1016
Schimbă -
Brut LOWI 040220Z AUTO VRB02KT 9999 FEW012 BKN046 14/13 Q1016

VFR

14°C / 13°C

[Mai mult]
Vânt 350º 2kt
Vizibilitate >10km
Vremea -
Nori Few Clouds 1000ft
Presiune 1016
Schimbă -
Brut LOWI 040150Z AUTO 35002KT 9999 FEW010 SCT034 BKN046 14/13 Q1016

MVFR

14°C / 13°C

[Mai mult]
Vânt variable 2kt
Vizibilitate >10km
Vremea Light Rain 1.00mm precipitation
Nori Vertical Visibility of 0ft.
Presiune 1016
Schimbă -
Brut LOWI 040120Z AUTO VRB02KT 9999 -RA FEW011 BKN018 14/13 Q1016

MVFR

15°C / 12°C

[Mai mult]
Vânt variable 2kt
Vizibilitate >10km
Vremea -
Nori Few Clouds 1000ft
Presiune 1016
Schimbă -
Brut LOWI 040050Z AUTO VRB02KT 9999 FEW010 BKN014 15/12 Q1016

VFR

14°C / 12°C

[Mai mult]
Vânt 50º variable 010º to 090º 5kt
Vizibilitate >10km
Vremea -
Nori Few Clouds 1000ft
Presiune 1016
Schimbă -
Brut LOWI 040020Z AUTO 05005KT 010V090 9999 FEW010 SCT042 BKN050 14/12 Q1016

VFR

15°C / 12°C

[Mai mult]
Vânt 70º variable 020º to 120º 7kt
Vizibilitate >10km
Vremea -
Nori Few Clouds 1100ft
Presiune 1016
Schimbă -
Brut LOWI 032350Z AUTO 07007KT 020V120 9999 FEW011 SCT040 BKN050 15/12 Q1016

VFR

15°C / 13°C

[Mai mult]
Vânt 100º variable 060º to 120º 5kt
Vizibilitate >10km
Vremea -
Nori Few Clouds 1000ft
Presiune 1017
Schimbă -
Brut LOWI 032320Z AUTO 10005KT 060V120 9999 FEW010 SCT032 BKN060 15/13 Q1017

VFR

15°C / 13°C

[Mai mult]
Vânt 90º variable 060º to 120º 4kt
Vizibilitate >10km
Vremea -
Nori Few Clouds 800ft
Presiune 1017
Schimbă -
Brut LOWI 032250Z AUTO 09004KT 060V120 9999 FEW008 BKN060 15/13 Q1017

VFR

15°C / 13°C

[Mai mult]
Vânt 100º variable 060º to 120º 4kt
Vizibilitate >10km
Vremea -
Nori Few Clouds 900ft
Presiune 1017
Schimbă -
Brut LOWI 032220Z AUTO 10004KT 060V120 9999 FEW009 BKN060 15/13 Q1017

MVFR

15°C / 14°C

[Mai mult]
Vânt 140º variable 110º to 190º 3kt
Vizibilitate >10km
Vremea Light Rain 1.00mm precipitation
Nori Vertical Visibility of 0ft.
Presiune 1017
Schimbă -
Brut LOWI 032150Z AUTO 14003KT 110V190 9999 -RA FEW008 BKN012 15/14 Q1017

MVFR

15°C / 14°C

[Mai mult]
Vânt variable 1kt
Vizibilitate >10km
Vremea -
Nori Few Clouds 800ft
Presiune 1017
Schimbă -
Brut LOWI 032120Z AUTO VRB01KT 9999 FEW008 BKN010 15/14 Q1017

MVFR

15°C / 14°C

[Mai mult]
Vânt variable 2kt
Vizibilitate >10km
Vremea Light Rain 1.00mm precipitation
Nori Vertical Visibility of 0ft.
Presiune 1017
Schimbă -
Brut LOWI 032050Z AUTO VRB02KT 9999 -RA FEW008 SCT010 BKN026 15/14 Q1017

VFR

15°C / 14°C

[Mai mult]
Vânt variable 1kt
Vizibilitate >10km
Vremea Light Drizzle 0.20mm precipitation
Nori Vertical Visibility of 0ft.
Presiune 1017
Schimbă -
Brut LOWI 032020Z AUTO VRB01KT 9999 -DZ FEW008 SCT034 BKN046 15/14 Q1017

TAF pentru Innsbruck (LOWI)

From till


Maximum Temperature 18ºC on . Minimum Temperature 13ºC on .
From till Wind variable 4kt. Visibility 10km or more. Few Clouds 2000ft. Broken Clouds 5000ft.
Temporarly from till Showers Rain .
Becoming from till Wind variable 4kt. Visibility 10km or more. Light Rain . Few Clouds 2000ft. Broken Clouds 5000ft.
Temporarly from till Rain . Broken Clouds 1200ft.

Brut: TAF LOWI 040515Z 0406/0506 VRB04KT 9999 FEW020 BKN050 TX18/0414Z TN13/0505Z TEMPO 0406/0412 SHRA BECMG 0412/0414 -RA TEMPO 0414/0506 RA BKN012

Imagini satelitare și ploaie pentru Innsbruck, Austria

Markerul cu locaţia este poziţionat pe Innsbruck. [Mai mult]

Imaginea satelitară în timp real combină lumina vizibilă din timpul zilei cu radiația cu infraroșu din timpul nopții. Pe timp de noapte, imaginea nu este întunecată, deoarece radiația cu infraroșu poate detecta diferențele de temperatură. Din păcate, norii joși și ceața sunt greu de recunoscut față de temperatura de la sol, din această cauză putând fi invizibili pe timp de noapte. Imaginile satelitare Meteosat pentru Europa sunt actualizate în timp real din 5 în 5 minute. Imaginile GOES-16/GOES-17 (America de Nord și de Sud) și Himawari (Asia) sunt actualizate din 10 în 10 minute.

Cantitatea de precipitaţii este estimată cu ajutorul radarelor şi a sateliţilor. Estimările satelitare privind cantitatea de precipitaţii sunt mai puţin exacte noaptea decât în timpul zilei. Crucile portocalii marchează locurile unde fulger a fost detectat (over Europa).

Toate drepturile rezervate 2021 EUMETSAT / meteoblue. Datele despre fulgere furnizate de către nowcast.

Radar pentru Innsbruck

Burniță
Ușoară
Moderat
Greu
Foarte greu
Grindină

Markerul de locație este plasat în Innsbruck. Această animație arată radarul de precipitații pentru ultima oră, precum și o 2h prognoză. Bruma și fulguiala pot fi invizibile pe radar. Intensitatea precipitațiilor este reprezentată prin culori, de la albastru deschis la violet închis.
Copyright 2021 Deutscher Wetterdienst / meteoblue.

Situația meteo actuală și avertismente

EUMETNET – MeteoAlarm

pictomap

Sursa: ZAMG

Este posibil să existe o întârziere între acest site și site-ul www.meteoalarm.eu, pentru cele mai recente informații referitoare la alertele publicate de serviciile meteorologice naționale te rugăm să consulți www.meteoalarm.eu.